www.pogodaiklimat.ru

Погода и климат >> Архив погоды >> Иран >> Остров Киш


ПОГОДА на Острове Киш

  • Прогноз погоды на Острове Киш
  • Монитор погоды на Острове Киш

АРХИВ ПОГОДЫ на Острове Киш

Время (UTC), дата Ветер
(напр.,м/с)
 
Видим.   Явления Облачность Т
(С)
Тd
(С)
f
(%)
Тe
(С)
Тes
(С)
Комфортность P
(гПа)
Po
(гПа)
Тmin
(С)
Tmax
(С)
R
(мм)
R24
(мм)
S
(см)
18 18.05 СВ 2 8000 м мгла 6/0
[Ci fib]
+29.4 +20.8 60 +37 +37 очень
душно
1006.4 1003.0
21 18.05 В 2 7000 м мгла 4/0
[Ci fib]
+27.6 +21.7 70 +35 +35 очень
душно
1006.1 1002.7
00 19.05 В 5 7000 м мгла 5/5 1050 м
[Sc]
+28.2 +23.3 75 +38 +38 очень
душно
1006.2 1002.9
03 19.05 З 5 7000 м мгла 9/3 900 м
[Cu hum As op]
+29.4 +21.9 64 +38 +38 очень
душно
1008.4 1005.0 +27.6 666
06 19.05 З 3 6000 м мгла 9/4 750 м
[Cb calv As op]
+30.4 +19.1 51 +36 +38 очень
душно
1010.1 1006.7
09 19.05 С 6 6000 м мгла {дождь} 9/4 1050 м
[Cu hum As op]
+32.4 +17.9 42 +37 +38 очень
душно
1008.9 1005.5 666
12 19.05 С 4 7000 м мгла {дождь} 5/0
[Ac trans Ci fib]
+34.4 +15.4 32 +36 +41 душно 1006.4 1003.0 0.1
15 19.05 ЮВ 2 12 км 4/1 1050 м
[Sc Ac cuf Ci fib]
+33.2 +11.7 27 +33 +33 жарко 1005.3 1002.0 +35.6
18 19.05 ЮВ 3 8000 м зарница 4/3 900 м
[Cb calv Ac trans]
+31.0 +12.6 32 +32 +32 жарко 1007.0 1003.7
21 19.05 ЮЗ 2 8000 м мгла {гроза} 5/5 900 м
[Sc]
+30.2 +18.2 49 +35 +35 очень
душно
1007.6 1004.3
00 20.05 В 3 6000 м мгла 1/1 1050 м
[Cu hum]
+28.6 +19.1 56 +34 +34 очень
душно
1007.5 1004.1
03 20.05 СВ 6 7000 м мгла 1/0
[Ci fib]
+28.2 +20.2 62 +35 +35 очень
душно
1009.2 1005.8 +27.6
06 20.05 ЮВ 7 5000 м пыль ясно +33.0 +16.3 37 +36 +40 очень
душно
1009.6 1006.2
09 20.05 ЮВ 10 3500 м пыльный позёмок ясно +34.6 +15.4 32 +37 +38 очень
душно
1009.0 1005.6
12 20.05 ЮВ 7 4000 м пыльный позёмок ясно +33.6 +17.0 37 +37 +39 очень
душно
1006.6 1003.2
15 20.05 ЮЗ 2 7000 м мгла ясно +31.4 +20.0 51 +38 +38 очень
душно
1005.7 1002.4 +34.6
18 20.05 З 4 7000 м мгла ясно +28.2 +22.2 70 +37 +37 очень
душно
1007.8 1004.5
21 20.05 С 2 7000 м мгла ясно +27.2 +21.9 73 +35 +35 очень
душно
1007.8 1004.5
00 21.05 СЗ 4 7000 м мгла ясно +26.8 +22.2 76 +35 +35 очень
душно
1007.7 1004.4
03 21.05 СЗ 6 7000 м мгла 4/0
[Ci fib]
+28.2 +21.7 68 +36 +37 очень
душно
1009.0 1005.7 +26.8
06 21.05 СЗ 3 7000 м мгла 4/0
[Ci fib]
+31.8 +24.6 66 +45 +57 опасность
перегрева
1009.9 1006.5
09 21.05 З 5 5000 м мгла 8/0
[Cs]
+32.8 +24.0 60 +45 +54 опасность
перегрева
1009.8 1006.5
12 21.05 З 6 4000 м мгла 9/0
[Cs]
+31.2 +23.8 65 +43 +46 опасность
перегрева
1009.0 1005.7
15 21.05 З 7 5000 м мгла 5/0
[Ci fib]
+28.6 +24.9 80 +41 +41 опасность
перегрева
1008.9 1005.5 +33.8
18 21.05 З 5 5000 м дымка ясно +27.2 +25.5 90 +40 +40 очень
душно
1009.7 1006.4
21 21.05 З 5 4000 м дымка ясно +26.6 +24.6 89 +38 +38 очень
душно
1009.0 1005.6
00 22.05 СЗ 7 4000 м дымка ясно +26.2 +24.2 89 +36 +36 очень
душно
1008.2 1004.8
03 22.05 З 4 8000 м дымка 1/0
[Ci fib]
+26.8 +24.2 86 +37 +39 очень
душно
1008.8 1005.4 +26.2
06 22.05 З 9 8000 м мгла 8/0
[Cs]
+29.6 +23.2 69 +40 +41 очень
душно
1009.3 1005.9
09 22.05 З 11 6000 м мгла 8/0
[Cs]
+31.8 +21.2 53 +39 +40 очень
душно
1007.9 1004.5 666
12 22.05 З 10 8000 м мгла 8/0
[Cs]
+31.0 +21.3 56 +39 +39 очень
душно
1006.7 1003.4
15 22.05 З 9 6000 м мгла 3/0
[Ci fib]
+28.6 +22.2 68 +37 +37 очень
душно
1006.5 1003.2 +32.4
18 22.05 СЗ 6 6000 м мгла ясно +27.8 +23.2 76 +37 +37 очень
душно
1007.2 1003.9
21 22.05 СЗ 6 6000 м дымка ясно +27.2 +23.4 80 +37 +37 очень
душно
1005.8 1002.4
00 23.05 З 5 5000 м дымка ясно +26.8 +23.5 82 +36 +36 очень
душно
1004.9 1001.5
03 23.05 СЗ 7 6000 м мгла ясно +28.0 +23.1 75 +38 +38 очень
душно
1005.7 1002.4 +26.4
06 23.05 СЗ 9 7000 м мгла ясно +31.4 +21.4 55 +39 +41 очень
душно
1006.8 1003.4
09 23.05 СЗ 10 7000 м мгла ясно +34.0 +25.1 60 +48 +49 опасность
перегрева
1006.1 1002.8
12 23.05 З 11 8000 м мгла 1/0
[Ci fib]
+33.0 +22.8 55 +43 +43 опасность
перегрева
1005.3 1001.9
15 23.05 З 5 8000 м мгла ясно +29.8 +21.2 60 +37 +37 очень
душно
1005.3 1001.9 +34.4 666
18 23.05 СЗ 2 8000 м мгла ясно +28.0 +22.1 70 +36 +36 очень
душно
1006.2 1002.9
21 23.05 СЗ 3 7000 м дымка ясно +26.8 +23.0 80 +36 +36 очень
душно
1005.4 1002.1
00 24.05 З 3 6000 м дымка ясно +25.6 +23.6 89 +35 +35 очень
душно
1004.9 1001.5
03 24.05 З 4 4000 м дымка ясно +26.6 +24.6 89 +38 +39 очень
душно
1006.6 1003.2 +25.0
06 24.05 Ю 2 8000 м мгла ясно +31.2 +24.7 68 +44 +60 опасность
перегрева
1008.6 1005.2
09 24.05 ЮВ 3 6000 м мгла ясно +32.0 +23.4 60 +43 +61 опасность
перегрева
1008.2 1004.8
12 24.05 ЮЗ 3 8000 м мгла ясно +31.6 +23.6 63 +43 +51 опасность
перегрева
1007.5 1004.1
15 24.05 З 2 6000 м мгла ясно +29.6 +23.2 69 +40 +40 очень
душно
1007.6 1004.2 +33.2
18 24.05 штиль 0 4000 м дымка ясно +26.8 +23.0 80 +36 +36 очень
душно
1008.1 1004.7
21 24.05 штиль 0 2400 м дымка ясно +26.2 +25.4 95 +38 +38 очень
душно
1007.8 1004.4
00 25.05 Ю 2 2000 м дымка ясно +24.4 +24.1 98 +34 +34 очень
душно
1007.3 1003.9
03 25.05 Ю 2 600 м туман ясно +26.0 +25.2 95 +37 +39 очень
душно
1008.8 1005.4 +24.4
06 25.05 ЮВ 3 3500 м мгла {туман} ясно +31.6 +24.2 65 +44 +57 опасность
перегрева
1010.0 1006.6
09 25.05 ЮЗ 4 4000 м мгла ясно +33.0 +21.6 51 +41 +56 опасность
перегрева
1008.9 1005.5
12 25.05 З 5 5000 м мгла ясно +32.0 +23.1 59 +42 +47 опасность
перегрева
1007.4 1004.0
15 25.05 З 4 10 км ясно +30.0 +22.8 65 +40 +40 очень
душно
1006.5 1003.1 +34.0

 

Местоположение метеостанции Остров Киш (Иран): широта 26.50 долгота 53.98 высота над уровнем моря 30 м.

В архиве по умолчанию представлена погода на Острове Киш за последнюю неделю. Архивные данные за месяц целиком и за предыдущие месяцы, начиная с января 2011 года, Вы можете получить, выбрав интересующий диапазон дат из раскрывающегося списка и нажав кнопку "Ввод!".


*Определитесь, кто Вы:
робот инопланетянин человек

Внимание! Время в таблицах - всемирное. Для получения местного времени необходимо прибавить поправку, которая равна 3.5 ч.

Смотрите также архив погоды в соседних городах и на ближайших метеорологических станциях:

Погода в Бендер-Ленге (Иран) (85 км)
Погода на Острове Сирри (Иран) (87 км)
Погода на Острове Абу-Муса (Иран) (113 км)
Погода в Дубае (ОАЭ) (194 км)
Погода в Шардже (ОАЭ) (202 км)
Погода в Аль-Мактум аэропорту (ОАЭ) (214 км)
Погода в Рай-эль-Хайма аэропорту (ОАЭ) (218 км)
Погода в Эль-Хасаб аэропорту (Оман) (227 км)
Погода в Эль-Хасабе (Оман) (228 км)
Погода в Абу-Даби Батин аэропорту (ОАЭ) (235 км)

Пояснения к столбцам:

Ветер - указаны скорость ветра в м/с - средняя за 10 мин, порывы в срок и между сроками (в фигурных скобках) и направление, откуда дует ветер: С - северный, СВ - северо-восточный, В - восточный, ЮВ - юго-восточный, Ю - южный, ЮЗ - юго-западный, З - западный, СЗ - северо-западный.
Видимость - горизонтальная дальность видимости в метрах или километрах. При видимости от 1 до 10 км при отсутствии осадков обычно наблюдается дымка, при ухудшении видимости до 1 км и менее - туман. В сухую погоду видимость может ухудшаться дымом, пылью или мглою.
Явления - указаны атмосферные явления, наблюдавшиеся в срок или в последний час перед сроком; фигурными скобками обозначены явления, наблюдавшиеся между сроками (за 1-3 часа до срока); квадратными скобками обозначены град или гололедные отложения с указанием их диаметра в мм.
Облачность - указаны через наклонную черту общая и нижняя облачность в баллах и высота нижней границы облаков в метрах; квадратными скобками обозначены формы облаков: Ci - перистые, Cs - перисто-слоистые, Cc - перисто-кучевые, Ac - высококучевые, As - высокослоистые, Sc - слоисто-кучевые, Ns - слоисто-дождевые, Cu - кучевые, Cb - кучево-дождевые. Подробнее классификацию облаков см. в Атласе облаков (PDF).
T - Температура воздуха - температура, измеренная на высоте 2 м над землей.
Td - Температура точки росы - температура, при понижении до которой содержащийся в воздухе водяной пар достигнет насыщения.
f - Относительная влажность воздуха - влажноcть воздуха, измеренная на высоте 2 м над землей.
Te - Эффективная температура - температура, которую ощущает одетый по сезону человек в тени. Характеристика душности погоды. При расчете учитывается влияние влажности воздуха и скорости ветра на теплоощущения человека.
Tes - Эффективная температура на солнце - температура, которую ощущает человек, с поправкой на солнечный нагрев. Характеристика знойности погоды. Зависит от высоты солнца над горизонтом, облачности и скорости ветра. Ночью, в пасмурную погоду, а также при ветре 12 м/с и более поправка равна нулю.
P - Атмосферное давление - приведенное к уровню моря атмосферное давление.
Po - Атмосферное давление - измеренное на уровне метеостанции атмосферное давление.
Tmin - Минимальная температура - минимум температуры воздуха на высоте 2 м над землей.
Tmax - Максимальная температура - максимум температуры воздуха на высоте 2 м над землей.
R - Количество осадков - Количество выпавших осадков за период времени, мм. При наведении курсора мыши на число - период времени, за который выпало указанное количество осадков.
R24 - Количество осадков - Количество выпавших осадков за 24 часа, мм.
S - Снежный покров - Высота снежного покрова, см. При наведении курсора мыши на число - состояние снежного покрова и степень покрытия местности в баллах.